{"data":{"norad_id":56096,"epoch":"2026-05-25T04:41:22.545312Z","epoch_age_seconds":64962,"freshness":"FRESH","line1":"1 56096U 23046D   26145.19539983  .00000128  00000+0  14165-4 0  9997","line2":"2 56096  43.0037  89.3593 0001167 265.4788  94.5930 15.27575418173733","mean_motion":15.27575418,"eccentricity":0.0001167,"inclination_deg":43.0037,"raan_deg":89.3593,"arg_perigee_deg":265.4788,"mean_anomaly_deg":94.593,"bstar":1.4165e-5,"rev_number":17373,"period_min":94.267031469081,"perigee_km":482.26211421176,"apogee_km":483.86351824887,"semimajor_km":6861.1998162303,"source":"CELESTRAK","updated_at":"2026-05-25T13:38:17.953481Z"}}